FW1194 Weather Reports


time (UTC)temp
C
wind
direction
speed
KPH
gust
KPH
rain 1hr
cm
rain 24hr
cm
rain mn
cm
humidity
%
barometer
mb
20260510082216 7 0.0 1.6 0.00 0.00 0.00 62 1014.0
20260510081215 7 45 1.6 3.2 0.00 0.00 0.00 62 1013.7
20260510080216 7 45 1.6 3.2 0.00 0.00 0.00 61 1013.6
20260510075236 7 45 3.2 6.4 0.00 0.00 0.00 61 1013.3
20260510074216 8 68 6.4 9.7 0.00 0.00 0.00 60 1013.3
20260510073215 8 68 4.8 8.0 0.00 0.00 0.00 59 1013.3
20260510072216 8 45 4.8 8.0 0.00 0.00 0.00 59 1013.0
20260510071337 8 45 11.3 17.7 0.00 0.00 0.00 60 1012.9
20260510070218 8 45 11.3 16.1 0.00 0.00 0.00 63 1012.8
20260510065218 8 45 6.4 9.7 0.00 0.00 0.00 66 1012.6
20260510064218 8 23 6.4 9.7 0.00 0.00 0.00 67 1012.5
20260510063218 7 45 9.7 17.7 0.00 0.00 0.00 70 1012.4
20260510062238 7 68 4.8 6.4 0.00 0.00 0.00 73 1012.1
20260510061218 7 0 4.8 11.3 0.00 0.00 0.00 73 1012.0
20260510060217 7 225 3.2 4.8 0.00 0.00 0.00 72 1011.7
20260510055217 7 0.0 0.0 0.00 0.00 0.00 72 1011.6
20260510054238 7 0.0 0.0 0.00 0.00 0.00 71 1011.5
20260510053218 7 293 1.6 3.2 0.00 0.00 0.00 71 1011.4
20260510052217 7 0 3.2 4.8 0.00 0.00 0.00 70 1011.1
20260510051221 8 0.0 1.6 0.00 0.00 0.00 70 1011.0
20260510050215 8 0.0 1.6 0.00 0.00 0.00 69 1011.0
20260510045216 8 0.0 0.0 0.00 0.00 0.00 69 1010.8
20260510044216 8 0.0 1.6 0.00 0.00 0.00 68 1010.6
20260510043236 9 0.0 0.0 0.00 0.00 0.00 66 1010.4
20260510042216 9 0.0 1.6 0.00 0.00 0.00 62 1010.3
20260510041216 10 0.0 0.0 0.00 0.00 0.00 61 1010.1
20260510040216 10 0.0 0.0 0.00 0.00 0.00 60 1009.9
20260510035236 10 113 1.6 1.6 0.00 0.00 0.00 59 1009.9
20260510034216 10 0.0 1.6 0.00 0.00 0.00 58 1009.7
20260510033216 11 158 1.6 3.2 0.00 0.00 0.00 56 1009.7
20260510032216 11 0.0 1.6 0.00 0.00 0.00 55 1009.4
20260510031216 11 68 1.6 3.2 0.00 0.00 0.00 54 1009.3
20260510030257 11 68 1.6 1.6 0.00 0.00 0.00 53 1009.3
20260510025216 12 0.0 1.6 0.00 0.00 0.00 52 1009.1
20260510024216 12 90 3.2 6.4 0.00 0.00 0.00 51 1008.8
20260510023216 12 68 3.2 3.2 0.00 0.00 0.00 50 1008.6
20260510022236 12 90 3.2 4.8 0.00 0.00 0.00 49 1008.4
20260510021236 13 90 4.8 6.4 0.00 0.00 0.00 48 1008.2
20260510020216 13 68 3.2 4.8 0.00 0.00 0.00 47 1008.1
20260510015216 14 90 6.4 9.7 0.00 0.00 0.00 46 1007.8
20260510014216 15 68 9.7 16.1 0.00 0.00 0.00 44 1007.5
20260510013216 16 90 8.0 11.3 0.00 0.00 0.00 42 1007.2
20260510012216 17 68 4.8 11.3 0.00 0.00 0.00 40 1007.0
20260510011216 18 315 6.4 9.7 0.00 0.00 0.00 37 1006.7
20260510010216 18 0 4.8 8.0 0.00 0.00 0.00 34 1006.4
20260510005216 18 293 6.4 14.5 0.00 0.00 0.00 34 1006.1
20260510004216 18 293 6.4 8.0 0.00 0.00 0.00 33 1005.9
20260510003216 19 315 16.1 24.1 0.00 0.00 0.00 33 1005.8
20260510002216 20 315 9.7 19.3 0.00 0.00 0.00 32 1005.5
20260510001236 20 293 11.3 20.9 0.00 0.00 0.00 32 1005.3
20260510000216 20 270 14.5 19.3 0.00 0.00 0.00 33 1005.2
20260509235216 21 293 12.9 20.9 0.00 0.00 0.00 32 1004.9
20260509234216 21 270 9.7 16.1 0.00 0.00 0.00 32 1004.8
20260509233218 21 293 8.0 16.1 0.00 0.00 0.00 32 1004.7
20260509232217 21 293 14.5 20.9 0.00 0.00 0.00 31 1004.6
20260509231216 21 270 16.1 20.9 0.00 0.00 0.00 32 1004.4
20260509230218 21 293 8.0 12.9 0.00 0.00 0.00 32 1004.3
20260509225218 21 270 17.7 30.6 0.00 0.00 0.00 31 1004.1
20260509224218 22 270 14.5 19.3 0.00 0.00 0.00 30 1004.0
20260509223238 22 270 20.9 30.6 0.00 0.00 0.00 30 1003.9
20260509222217 22 315 16.1 22.5 0.00 0.00 0.00 31 1003.9
20260509221217 22 270 25.7 35.4 0.00 0.00 0.00 30 1003.7
20260509220318 22 270 16.1 22.5 0.00 0.00 0.00 29 1003.6
20260509215217 22 270 20.9 24.1 0.00 0.00 0.00 30 1003.4
20260509214237 22 270 16.1 22.5 0.00 0.00 0.00 29 1003.3
20260509213217 23 270 29.0 38.6 0.00 0.00 0.00 27 1003.3
20260509212217 23 293 20.9 32.2 0.00 0.00 0.00 28 1003.2
20260509211217 23 293 19.3 29.0 0.00 0.00 0.00 29 1003.0
20260509210217 23 248 27.4 48.3 0.00 0.00 0.00 29 1002.9
20260509205217 23 270 17.7 24.1 0.00 0.00 0.00 30 1002.8
20260509204217 23 270 25.7 30.6 0.00 0.00 0.00 28 1002.8
20260509203217 23 270 20.9 29.0 0.00 0.00 0.00 29 1002.6
20260509202237 23 270 22.5 32.2 0.00 0.00 0.00 29 1002.6
20260509201237 23 248 29.0 40.2 0.00 0.00 0.00 28 1002.8
20260509200217 23 270 16.1 22.5 0.00 0.00 0.00 30 1002.8
20260509195237 22 248 25.7 38.6 0.00 0.00 0.00 30 1003.0
20260509194258 22 270 30.6 46.7 0.00 0.00 0.00 30 1003.1
20260509193217 22 225 20.9 35.4 0.00 0.00 0.00 32 1003.0
20260509192238 21 270 17.7 29.0 0.00 0.00 0.00 32 1003.0
20260509191217 21 270 25.7 35.4 0.00 0.00 0.00 30 1003.1
20260509190217 21 248 25.7 30.6 0.00 0.00 0.00 30 1002.9
20260509185237 21 248 17.7 24.1 0.00 0.00 0.00 29 1002.9
20260509184217 22 270 19.3 25.7 0.00 0.00 0.00 28 1002.8
20260509183217 22 0 19.3 25.7 0.00 0.00 0.00 28 1002.6
20260509182258 21 225 16.1 27.4 0.00 0.00 0.00 29 1002.5
20260509181217 22 0 20.9 33.8 0.00 0.00 0.00 32 1002.8
20260509180217 21 0 14.5 20.9 0.00 0.00 0.00 31 1003.0
20260509175237 21 270 14.5 20.9 0.00 0.00 0.00 30 1003.1
20260509174217 22 270 12.9 17.7 0.00 0.00 0.00 30 1003.0
20260509173217 22 248 19.3 29.0 0.00 0.00 0.00 29 1003.2
20260509172217 21 270 17.7 24.1 0.00 0.00 0.00 31 1003.2
20260509171237 21 270 16.1 24.1 0.00 0.00 0.00 33 1003.3
20260509170237 21 270 22.5 30.6 0.00 0.00 0.00 33 1003.3
20260509165217 21 248 14.5 20.9 0.00 0.00 0.00 36 1003.3
20260509164217 21 248 16.1 20.9 0.00 0.00 0.00 36 1003.4
20260509163237 21 270 19.3 30.6 0.00 0.00 0.00 38 1003.4
20260509162217 21 225 19.3 25.7 0.00 0.00 0.00 40 1003.2
20260509161217 20 293 12.9 17.7 0.00 0.00 0.00 50 1003.2
20260509160217 20 270 9.7 16.1 0.00 0.00 0.00 51 1003.1
20260509155217 19 180 11.3 16.1 0.00 0.00 0.00 60 1003.1
20260509154217 19 203 14.5 17.7 0.00 0.00 0.00 59 1003.2
20260509153217 18 0 9.7 12.9 0.00 0.00 0.00 60 1003.1
20260509152217 18 0 14.5 20.9 0.00 0.00 0.00 65 1003.2
20260509151217 17 0 12.9 17.7 0.00 0.00 0.00 66 1003.1
20260509150217 17 270 9.7 14.5 0.00 0.00 0.00 66 1003.1
20260509145217 17 0 12.9 17.7 0.00 0.00 0.00 68 1003.1
20260509144217 17 248 11.3 17.7 0.00 0.00 0.00 68 1003.1
20260509143217 16 225 12.9 14.5 0.00 0.00 0.00 70 1003.1
20260509142237 16 225 9.7 12.9 0.00 0.00 0.00 70 1003.1
20260509141217 16 270 14.5 20.9 0.00 0.00 0.00 72 1003.2
20260509140237 15 248 9.7 16.1 0.00 0.00 0.00 73 1002.9
20260509135258 15 0 11.3 16.1 0.00 0.00 0.00 76 1003.0
20260509134217 15 225 9.7 14.5 0.00 0.00 0.00 78 1002.9
20260509133216 14 203 9.7 16.1 0.00 0.00 0.00 80 1002.7
20260509132217 13 0 9.7 19.3 0.00 0.00 0.00 81 1002.8
20260509131257 13 0 12.9 19.3 0.00 0.00 0.00 82 1002.8
20260509130237 13 225 17.7 22.5 0.00 0.00 0.00 83 1003.0
20260509125216 12 0 11.3 19.3 0.00 0.00 0.00 84 1002.9
20260509124217 12 248 11.3 16.1 0.00 0.00 0.00 86 1002.8
20260509123217 12 0 14.5 22.5 0.00 0.00 0.00 87 1002.8
20260509122217 12 225 14.5 20.9 0.00 0.00 0.00 88 1002.8
20260509121216 11 225 11.3 17.7 0.00 0.00 0.00 89 1002.8
20260509120217 11 203 11.3 16.1 0.00 0.00 0.00 89 1002.8
20260509115237 11 203 11.3 17.7 0.00 0.00 0.00 89 1002.7
20260509114216 11 225 14.5 20.9 0.00 0.00 0.00 89 1002.7
20260509113237 11 203 9.7 14.5 0.00 0.00 0.00 89 1002.5
20260509112217 11 225 11.3 14.5 0.00 0.00 0.00 89 1002.4
20260509111216 11 248 9.7 16.1 0.00 0.00 0.00 89 1002.5
20260509110217 11 203 9.7 14.5 0.00 0.00 0.00 89 1002.3
20260509105216 11 203 11.3 17.7 0.00 0.00 0.00 89 1002.3
20260509104237 11 203 12.9 17.7 0.00 0.00 0.00 89 1002.5
20260509103216 11 248 4.8 6.4 0.00 0.00 0.00 89 1002.2
20260509102217 11 225 9.7 16.1 0.00 0.00 0.00 89 1002.1
20260509101216 11 203 12.9 20.9 0.00 0.00 0.00 89 1002.1
20260509100237 11 203 9.7 12.9 0.00 0.00 0.00 89 1002.1
20260509095216 11 203 6.4 9.7 0.00 0.00 0.00 89 1002.2
20260509094216 11 203 11.3 14.5 0.00 0.00 0.00 89 1002.4
20260509093216 11 225 6.4 9.7 0.00 0.00 0.00 89 1002.7
20260509092216 11 203 8.0 11.3 0.00 0.00 0.00 89 1002.7
20260509091236 11 225 9.7 14.5 0.00 0.00 0.00 88 1002.9
20260509090237 11 225 6.4 9.7 0.00 0.00 0.00 88 1003.0
20260509085216 11 203 8.0 12.9 0.00 0.00 0.00 88 1003.0
20260509084217 11 203 8.0 12.9 0.00 0.00 0.00 87 1002.9
20260509083216 11 203 8.0 11.3 0.00 0.00 0.00 87 1003.1